Date String (YYYY-MM-DD hh:mm:ss) UTC,Instrument flags,absolute air pressure of the measurement (hPa),sample flow rate (lpm),inlet stack bypass flow (lpm),air temperature of the measurement (°C),ambient temperature measured by the external sensor (°C),aerosol sample conditioner tube jacket temperature (°C),OPC LED temperature (°C),internal box temperature (°C),relative humidity of the measurement (%),span deviation,mass concentration of particles derived from Lorenz-Mie calculation of OPC scattering (μg/m³),mass concentration of particles derived from Lorenz-Mie calculation of OPC scattering (μg/m³),mass concentration of particles derived from Lorenz-Mie calculation of OPC scattering (μg/m³)
DateTimeUTC,F1_M11,P_M11,Q1_M11,Q2_M11,T1_M11,T2_M11,T3_M11,T4_M11,T5_M11,U1_M11,ZSPAN_M11,X2_M11,X0_M11,X1_M11
2024-05-12 07:00:00,SystemResetWarning,0824.5,5.00,000.00,024.7,023.7,000.0,033.1,026.5,023.8,0000.0,0004.79,0013.25,0003.91
2024-05-12 07:01:00,SystemResetWarning,0824.5,5.00,000.00,024.8,023.9,000.0,033.1,026.6,023.9,0000.0,0004.73,0012.32,0003.92
2024-05-12 07:02:00,SystemResetWarning,0824.5,5.00,000.00,024.8,024.1,000.0,033.1,026.6,024.1,0000.0,0004.72,0012.13,0003.92
2024-05-12 07:03:00,SystemResetWarning,0824.4,5.00,000.00,024.9,024.2,000.0,033.1,026.7,024.4,0000.0,0004.65,0011.91,0003.92
2024-05-12 07:04:00,SystemResetWarning,0824.4,5.02,000.00,024.9,024.3,000.0,033.2,026.7,024.5,0000.0,0004.61,0011.43,0003.92
2024-05-12 07:05:00,SystemResetWarning,0824.4,4.99,000.00,025.0,024.4,000.0,033.2,026.8,024.7,0000.0,0004.61,0011.88,0003.92
2024-05-12 07:06:00,SystemResetWarning,0824.4,4.98,000.00,025.0,024.5,000.0,033.2,026.8,024.6,0000.0,0004.63,0011.88,0003.93
2024-05-12 07:07:00,SystemResetWarning,0824.4,5.01,000.00,025.1,024.6,000.0,033.2,026.9,024.1,0000.0,0004.64,0011.92,0003.93
2024-05-12 07:08:00,SystemResetWarning,0824.5,5.01,000.00,025.1,024.6,000.0,033.2,026.9,024.0,0000.0,0004.65,0012.60,0003.93
2024-05-12 07:09:00,SystemResetWarning,0824.5,5.00,000.00,025.2,024.7,000.0,033.3,027.0,024.0,0000.0,0004.65,0012.79,0003.93
2024-05-12 07:10:00,SystemResetWarning,0824.6,4.99,000.00,025.2,024.8,000.0,033.3,027.1,023.6,0000.0,0004.62,0012.76,0003.93
2024-05-12 07:11:00,SystemResetWarning,0824.5,4.99,000.00,025.3,024.8,000.0,033.3,027.1,023.4,0000.0,0004.67,0012.33,0003.94
2024-05-12 07:12:00,SystemResetWarning,0824.6,5.01,000.00,025.3,024.9,000.0,033.3,027.2,023.4,0000.0,0004.74,0012.28,0003.95
2024-05-12 07:13:00,SystemResetWarning,0824.7,5.01,000.00,025.3,024.9,000.0,033.4,027.2,023.7,0000.0,0004.76,0012.16,0003.95
2024-05-12 07:14:00,SystemResetWarning,0824.7,5.01,000.00,025.4,024.9,000.0,033.4,027.2,024.2,0000.0,0004.80,0012.82,0003.96
2024-05-12 07:15:00,SystemResetWarning,0824.7,4.99,000.00,025.4,025.0,000.0,033.5,027.2,024.4,0000.0,0004.81,0012.92,0003.96
2024-05-12 07:16:00,SystemResetWarning,0824.7,4.99,000.00,025.4,025.0,000.0,033.5,027.3,024.5,0000.0,0004.78,0013.50,0003.97
2024-05-12 07:17:00,SystemResetWarning,0824.6,5.00,000.00,025.5,025.0,000.0,033.5,027.3,024.5,0000.0,0004.76,0013.49,0003.98
2024-05-12 07:18:00,SystemResetWarning,0824.6,5.00,000.00,025.5,025.1,000.0,033.6,027.3,024.2,0000.0,0004.77,0013.79,0003.97
2024-05-12 07:19:00,SystemResetWarning,0824.6,5.00,000.00,025.5,025.1,000.0,033.6,027.3,023.6,0000.0,0004.76,0012.50,0003.97
2024-05-12 07:20:00,SystemResetWarning,0824.5,5.01,000.00,025.6,025.1,000.0,033.6,027.3,023.2,0000.0,0004.79,0012.12,0003.99
2024-05-12 07:21:00,SystemResetWarning,0824.4,4.99,000.00,025.4,023.4,000.0,033.7,026.5,023.7,0000.0,0004.86,0012.21,0004.00
2024-05-12 07:22:00,SystemResetWarning,0824.4,5.01,000.00,025.0,021.9,000.0,033.7,025.7,024.1,0000.0,0004.89,0012.79,0004.01
2024-05-12 07:23:00,SystemResetWarning,0824.4,5.01,000.00,024.7,021.9,000.0,033.6,025.5,024.1,0000.0,0004.88,0013.17,0004.01
2024-05-12 07:24:00,SystemResetWarning,0824.4,4.99,000.00,024.7,022.3,000.0,033.5,025.7,024.0,0000.0,0004.91,0013.13,0004.02
2024-05-12 07:25:00,SystemResetWarning,0824.4,5.00,000.00,024.7,022.7,000.0,033.3,026.0,023.8,0000.0,0004.92,0012.59,0004.01
2024-05-12 07:26:00,SystemResetWarning,0824.4,5.02,000.00,024.7,023.0,000.0,033.3,026.2,023.7,0000.0,0004.93,0012.38,0004.01
2024-05-12 07:27:00,SystemResetWarning,0824.4,5.00,000.00,024.7,023.3,000.0,033.2,026.4,023.7,0000.0,0004.94,0011.30,0004.01
2024-05-12 07:28:00,SystemResetWarning,0824.4,5.00,000.00,024.8,023.6,000.0,033.2,026.5,023.6,0000.0,0004.95,0011.67,0004.00
2024-05-12 07:29:00,SystemResetWarning,0824.4,5.00,000.00,024.8,023.8,000.0,033.2,026.6,023.5,0000.0,0004.97,0012.10,0003.99
2024-05-12 07:30:00,SystemResetWarning,0824.5,5.00,000.00,024.9,024.0,000.0,033.2,026.6,023.5,0000.0,0004.98,0013.00,0003.97
2024-05-12 07:31:00,SystemResetWarning,0824.5,5.00,000.00,024.9,024.1,000.0,033.2,026.7,023.3,0000.0,0004.93,0012.98,0003.96
2024-05-12 07:32:00,SystemResetWarning,0824.5,5.00,000.00,025.0,024.2,000.0,033.2,026.8,023.1,0000.0,0004.93,0013.10,0003.95
2024-05-12 07:33:00,SystemResetWarning,0824.5,5.00,000.00,025.0,024.4,000.0,033.2,026.8,022.8,0000.0,0004.89,0012.85,0003.93
2024-05-12 07:34:00,SystemResetWarning,0824.5,4.99,000.00,025.1,024.5,000.0,033.2,026.9,022.7,0000.0,0004.84,0012.28,0003.90
2024-05-12 07:35:00,SystemResetWarning,0824.5,5.00,000.00,025.1,024.6,000.0,033.2,026.9,022.4,0000.0,0004.81,0012.61,0003.89
2024-05-12 07:36:00,SystemResetWarning,0824.5,4.99,000.00,025.1,024.6,000.0,033.2,027.0,022.2,0000.0,0004.80,0012.52,0003.87
2024-05-12 07:37:00,SystemResetWarning,0824.5,5.00,000.00,025.2,024.7,000.0,033.3,027.0,022.3,0000.0,0004.76,0012.36,0003.86
2024-05-12 07:38:00,SystemResetWarning,0824.5,5.00,000.00,025.2,024.8,000.0,033.3,027.1,022.6,0000.0,0004.73,0012.09,0003.84
2024-05-12 07:39:00,SystemResetWarning,0824.5,5.00,000.00,025.3,024.8,000.0,033.3,027.1,023.8,0000.0,0004.71,0011.67,0003.84
2024-05-12 07:40:00,SystemResetWarning,0824.5,5.00,000.00,025.3,024.9,000.0,033.4,027.1,023.9,0000.0,0004.73,0011.63,0003.84
2024-05-12 07:41:00,SystemResetWarning,0824.5,5.01,000.00,025.3,024.9,000.0,033.4,027.2,023.4,0000.0,0004.77,0011.40,0003.86
2024-05-12 07:42:00,SystemResetWarning,0824.5,5.00,000.00,025.4,025.0,000.0,033.4,027.2,023.7,0000.0,0004.80,0011.26,0003.86
2024-05-12 07:43:00,SystemResetWarning,0824.6,5.00,000.00,025.4,025.0,000.0,033.5,027.2,024.0,0000.0,0004.77,0011.21,0003.86
2024-05-12 07:44:00,SystemResetWarning,0824.7,4.99,000.00,025.5,025.0,000.0,033.5,027.3,023.8,0000.0,0004.73,0012.56,0003.86
2024-05-12 07:45:00,SystemResetWarning,0824.7,5.01,000.00,025.5,025.1,000.0,033.5,027.3,023.3,0000.0,0004.77,0012.88,0003.88
2024-05-12 07:46:00,SystemResetWarning,0824.7,5.00,000.00,025.5,025.1,000.0,033.6,027.4,023.3,0000.0,0004.77,0012.65,0003.89
2024-05-12 07:47:00,SystemResetWarning,0824.7,4.99,000.00,025.5,024.8,000.0,033.6,027.2,022.8,0000.0,0004.74,0012.84,0003.90
2024-05-12 07:48:00,SystemResetWarning,0824.6,5.00,000.00,025.2,022.7,000.0,033.7,026.1,023.2,0000.0,0004.81,0013.63,0003.93
2024-05-12 07:49:00,SystemResetWarning,0824.6,5.01,000.00,024.8,021.8,000.0,033.7,025.5,023.7,0000.0,0004.84,0014.06,0003.95
2024-05-12 07:50:00,SystemResetWarning,0824.7,5.00,000.00,024.7,022.1,000.0,033.6,025.6,023.8,0000.0,0004.82,0014.46,0003.96
2024-05-12 07:51:00,SystemResetWarning,0824.7,5.00,000.00,024.6,022.4,000.0,033.4,025.9,023.8,0000.0,0004.82,0013.83,0003.96
2024-05-12 07:52:00,SystemResetWarning,0824.7,5.00,000.00,024.7,022.8,000.0,033.3,026.1,023.8,0000.0,0004.80,0013.26,0003.98
2024-05-12 07:53:00,SystemResetWarning,0824.7,5.01,000.00,024.7,023.1,000.0,033.2,026.3,023.9,0000.0,0004.82,0014.03,0004.00
2024-05-12 07:54:00,SystemResetWarning,0824.7,5.00,000.00,024.7,023.4,000.0,033.2,026.4,024.0,0000.0,0004.83,0013.77,0004.03
2024-05-12 07:55:00,SystemResetWarning,0824.7,5.00,000.00,024.8,023.7,000.0,033.2,026.5,023.9,0000.0,0004.89,0011.97,0004.07
2024-05-12 07:56:00,SystemResetWarning,0824.7,4.99,000.00,024.8,023.8,000.0,033.2,026.6,023.6,0000.0,0004.91,0011.57,0004.11
2024-05-12 07:57:00,SystemResetWarning,0824.7,5.00,000.00,024.9,024.0,000.0,033.1,026.6,023.5,0000.0,0004.96,0011.52,0004.16
2024-05-12 07:58:00,SystemResetWarning,0824.7,5.00,000.00,024.9,024.2,000.0,033.2,026.7,023.3,0000.0,0005.05,0011.52,0004.21
2024-05-12 07:59:00,SystemResetWarning,0824.7,5.00,000.00,025.0,024.3,000.0,033.2,026.8,023.1,0000.0,0005.10,0011.42,0004.30
